Kezdőlap
METAR-TAF:

METAR-TAF

Repülőterek :

Dewar Lakes, Nunavut, Kanada

földrajzi szélesség: 68-39N, földrajzi hosszúság: 071-10W, magasság: 518 m

Jelenlegi meteorológiai megfigyelések

A jelentés 1 órával és 12 perccel ezelõtt készült, 22:00 UTC
Észak-északnyugati szél 7 kt
Hőmérséklet -27°C
Páratartalom 75%
Légköri nyomás 993 hPa

METAR: CWUW 222200Z AUTO 34007KT ////SM NCD M27/M30 A2931

Idő: 18:12 (23:12 UTC)


TAF: hiányzik

Meteorológiai megfigyelések és előrejelzések több, mint 4000 repülőtéren (METAR és TAF jelentéseket).

A térképen piros és sárga pontok jelzik az elérhető meteorológiai állomásokat.

Mozgassa az egeret a pont fölött, hogy megjelenjen az állomás neve.

Azután kattintson az időjárási megfigyelések és előrejelzések megtekintéséhez.

A térkép megváltoztatása: kattintson a fekete keresztel jelölt zöld gombra ráközelítéshez, a vonallal jelölt zöld gombra távolításhoz, vagy a zöld nyilakra a szomszédos térképek eléréséhez.


METAR-TAF: